Hourly Weather Bolshie Litvinovichi

Today, 15 June, Tuesday

Time Temperature Precipitation Wind Pressure Humidity
00:00 +15°C° 0 mm 2 mps 750 mmHg 92%
01:00 +15°C° 0 mm 1 mps 750 mmHg 93%
02:00 +15°C° 0 mm 1 mps 750 mmHg 93%
03:00 +15°C° 0 mm 2 mps 750 mmHg 93%
04:00 +15°C° 0 mm 2 mps 750 mmHg 93%
05:00 +16°C° 0 mm 2 mps 750 mmHg 93%
06:00 +17°C° 0 mm 2 mps 750 mmHg 86%
07:00 +19°C° 0 mm 2 mps 750 mmHg 80%
08:00 +21°C° 0 mm 2 mps 750 mmHg 73%
09:00 +23°C° 0 mm 2 mps 750 mmHg 68%
10:00 +24°C° 0 mm 2 mps 750 mmHg 63%
11:00 +25°C° 0 mm 3 mps 750 mmHg 58%
12:00 +25°C° 0 mm 3 mps 749 mmHg 56%
13:00 +26°C° 0 mm 3 mps 749 mmHg 55%
14:00 +26°C° 0 mm 3 mps 749 mmHg 53%
15:00 +25°C° 0 mm 3 mps 749 mmHg 56%
16:00 +25°C° 0 mm 3 mps 748 mmHg 59%
17:00 +24°C° 0 mm 3 mps 748 mmHg 63%
18:00 +22°C° 0 mm 3 mps 748 mmHg 68%
19:00 +20°C° 0 mm 3 mps 748 mmHg 73%
20:00 +19°C° 0 mm 2 mps 748 mmHg 78%
21:00 +18°C° 0 mm 2 mps 748 mmHg 79%
22:00 +17°C° 0 mm 2 mps 748 mmHg 79%
23:00 +16°C° 0 mm 2 mps 748 mmHg 80%

Tomorrow, 16 June, Wednesday

Time Temperature Precipitation Wind Pressure Humidity
00:00 +15°C° 0 mm 2 mps 748 mmHg 83%
01:00 +15°C° 0 mm 2 mps 748 mmHg 85%
02:00 +14°C° 0 mm 2 mps 748 mmHg 88%
03:00 +15°C° 0 mm 2 mps 748 mmHg 90%
04:00 +15°C° 0 mm 2 mps 749 mmHg 91%
05:00 +16°C° 0 mm 2 mps 749 mmHg 92%
06:00 +17°C° 0 mm 2 mps 749 mmHg 86%
07:00 +19°C° 0 mm 3 mps 749 mmHg 81%
08:00 +20°C° 0 mm 3 mps 750 mmHg 75%
09:00 +21°C° 0.1 mm 3 mps 750 mmHg 71%
10:00 +22°C° 0.1 mm 4 mps 750 mmHg 67%
11:00 +23°C° 0.1 mm 4 mps 750 mmHg 64%
12:00 +25°C° 0.2 mm 4 mps 750 mmHg 61%
13:00 +25°C° 0.2 mm 4 mps 750 mmHg 59%
14:00 +25°C° 0.2 mm 5 mps 750 mmHg 56%
15:00 +25°C° 0 mm 4 mps 750 mmHg 56%
16:00 +25°C° 0 mm 4 mps 750 mmHg 57%
17:00 +25°C° 0 mm 4 mps 750 mmHg 57%
18:00 +24°C° 0 mm 3 mps 750 mmHg 64%
19:00 +21°C° 0 mm 3 mps 751 mmHg 72%
20:00 +19°C° 0 mm 3 mps 751 mmHg 80%
21:00 +18°C° 0 mm 3 mps 751 mmHg 82%
22:00 +17°C° 0 mm 3 mps 752 mmHg 85%
23:00 +16°C° 0 mm 3 mps 752 mmHg 88%

Day after tomorrow, 17 June, Thursday

Time Temperature Precipitation Wind Pressure Humidity
00:00 +14°C° 0 mm 3 mps 752 mmHg 86%
01:00 +14°C° 0 mm 3 mps 752 mmHg 85%
02:00 +13°C° 0 mm 3 mps 752 mmHg 83%
03:00 +13°C° 0 mm 3 mps 753 mmHg 82%
04:00 +13°C° 0 mm 3 mps 753 mmHg 81%
05:00 +13°C° 0 mm 3 mps 753 mmHg 80%
06:00 +16°C° 0 mm 3 mps 753 mmHg 74%
07:00 +18°C° 0 mm 4 mps 754 mmHg 68%
08:00 +20°C° 0 mm 4 mps 754 mmHg 62%
09:00 +21°C° 0 mm 4 mps 754 mmHg 60%
10:00 +23°C° 0 mm 4 mps 754 mmHg 57%
11:00 +25°C° 0 mm 4 mps 755 mmHg 54%
12:00 +26°C° 0 mm 4 mps 755 mmHg 53%
13:00 +27°C° 0 mm 4 mps 755 mmHg 52%
14:00 +27°C° 0 mm 4 mps 755 mmHg 51%
15:00 +27°C° 0 mm 4 mps 755 mmHg 53%
16:00 +27°C° 0 mm 4 mps 754 mmHg 55%
17:00 +26°C° 0 mm 4 mps 754 mmHg 57%
18:00 +25°C° 0 mm 3 mps 755 mmHg 65%
19:00 +22°C° 0 mm 3 mps 755 mmHg 72%
20:00 +20°C° 0 mm 3 mps 755 mmHg 79%
21:00 +19°C° 0 mm 3 mps 755 mmHg 81%
22:00 +18°C° 0 mm 3 mps 755 mmHg 82%
23:00 +16°C° 0 mm 2 mps 756 mmHg 83%

18 June, Friday

Time Temperature Precipitation Wind Pressure Humidity
00:00 +16°C° 0 mm 2 mps 756 mmHg 86%
01:00 +15°C° 0 mm 2 mps 756 mmHg 88%
02:00 +15°C° 0 mm 2 mps 756 mmHg 91%
03:00 +15°C° 0 mm 2 mps 756 mmHg 91%
04:00 +15°C° 0 mm 2 mps 756 mmHg 91%
05:00 +15°C° 0 mm 2 mps 756 mmHg 91%
06:00 +17°C° 0 mm 3 mps 756 mmHg 83%
07:00 +19°C° 0 mm 3 mps 757 mmHg 76%
08:00 +21°C° 0 mm 4 mps 757 mmHg 68%
09:00 +22°C° 0 mm 4 mps 757 mmHg 63%
10:00 +23°C° 0 mm 4 mps 757 mmHg 57%
11:00 +25°C° 0 mm 4 mps 756 mmHg 52%
12:00 +26°C° 0 mm 4 mps 756 mmHg 51%
13:00 +27°C° 0 mm 4 mps 756 mmHg 49%
14:00 +27°C° 0 mm 4 mps 756 mmHg 48%
15:00 +27°C° 0 mm 4 mps 756 mmHg 51%
16:00 +27°C° 0 mm 3 mps 756 mmHg 53%
17:00 +27°C° 0 mm 3 mps 756 mmHg 56%
18:00 +25°C° 0 mm 3 mps 756 mmHg 65%
19:00 +22°C° 0 mm 3 mps 756 mmHg 73%
20:00 +20°C° 0 mm 3 mps 756 mmHg 81%
21:00 +19°C° 0 mm 3 mps 756 mmHg 84%
22:00 +18°C° 0 mm 2 mps 756 mmHg 88%
23:00 +17°C° 0 mm 2 mps 756 mmHg 91%

19 June, Saturday

Time Temperature Precipitation Wind Pressure Humidity
00:00 +17°C° 0 mm 2 mps 756 mmHg 92%
01:00 +16°C° 0 mm 2 mps 756 mmHg 93%
02:00 +16°C° 0 mm 2 mps 757 mmHg 94%
03:00 +16°C° 0 mm 2 mps 757 mmHg 93%
04:00 +16°C° 0 mm 2 mps 757 mmHg 93%
05:00 +16°C° 0 mm 2 mps 757 mmHg 93%
06:00 +18°C° 0 mm 2 mps 757 mmHg 86%
07:00 +20°C° 0 mm 3 mps 757 mmHg 79%
08:00 +21°C° 0 mm 3 mps 757 mmHg 72%
09:00 +24°C° 0 mm 3 mps 757 mmHg 66%
10:00 +25°C° 0 mm 3 mps 757 mmHg 60%
11:00 +26°C° 0 mm 3 mps 756 mmHg 55%
12:00 +27°C° 0 mm 3 mps 756 mmHg 53%
13:00 +27°C° 0 mm 3 mps 756 mmHg 51%
14:00 +28°C° 0 mm 3 mps 756 mmHg 49%
15:00 +28°C° 0 mm 3 mps 755 mmHg 51%
16:00 +27°C° 0 mm 3 mps 755 mmHg 53%
17:00 +27°C° 0 mm 3 mps 755 mmHg 55%
18:00 +26°C° 0 mm 3 mps 755 mmHg 63%
19:00 +24°C° 0 mm 2 mps 755 mmHg 70%
20:00 +21°C° 0 mm 2 mps 755 mmHg 77%
21:00 +20°C° 0 mm 2 mps 755 mmHg 81%
22:00 +19°C° 0 mm 2 mps 755 mmHg 84%
23:00 +18°C° 0 mm 2 mps 755 mmHg 87%

20 June, Sunday

Time Temperature Precipitation Wind Pressure Humidity
00:00 +18°C° 0 mm 2 mps 755 mmHg 89%
01:00 +17°C° 0 mm 2 mps 755 mmHg 91%
02:00 +17°C° 0 mm 2 mps 755 mmHg 92%
03:00 +17°C° 0 mm 2 mps 755 mmHg 92%
04:00 +17°C° 0 mm 2 mps 755 mmHg 93%
05:00 +17°C° 0 mm 2 mps 755 mmHg 93%
06:00 +19°C° 0 mm 2 mps 755 mmHg 86%
07:00 +21°C° 0 mm 3 mps 755 mmHg 80%
08:00 +22°C° 0 mm 3 mps 755 mmHg 73%
09:00 +24°C° 0 mm 3 mps 755 mmHg 68%
10:00 +25°C° 0 mm 3 mps 755 mmHg 63%
11:00 +26°C° 0 mm 4 mps 755 mmHg 57%
12:00 +27°C° 0 mm 3 mps 755 mmHg 55%
13:00 +27°C° 0 mm 3 mps 754 mmHg 54%
14:00 +28°C° 0 mm 3 mps 754 mmHg 52%
15:00 +28°C° 0 mm 3 mps 754 mmHg 54%
16:00 +28°C° 0 mm 3 mps 754 mmHg 55%
17:00 +28°C° 0 mm 3 mps 753 mmHg 57%
18:00 +26°C° 0 mm 3 mps 753 mmHg 65%
19:00 +24°C° 0 mm 3 mps 753 mmHg 73%
20:00 +23°C° 0 mm 2 mps 753 mmHg 81%
21:00 +21°C° 0 mm 2 mps 753 mmHg 85%
22:00 +20°C° 0 mm 2 mps 753 mmHg 88%
23:00 +19°C° 0 mm 2 mps 754 mmHg 92%
Show more